Location: Strawberry
(45.6646°N, 111.9596°W)
Time: 20:22:55
(UTC+00:00)

Explorer 11/Cluster Stage 4 - Pass Details

Date: 09 October 2022
Orbit: 466 x 1248 km, 28.8° (Epoch: 28 November)

Event Time Altitude Azimuth Distance (km) Brightness Sun altitude
Rises 19:30:33 0° 250° (WSW) 4,163 10.6 37.7°
Reaches altitude 10° 19:34:23 10° 235° (SW) 3,212 10.3 37.7°
Maximum altitude 19:39:48 20° 193° (SSW) 2,526 10.9 37.6°
Drops below altitude 10° 19:45:01 10° 151° (SSE) 3,078 10.4 37.4°
Sets 19:48:35 0° 135° (SE) 3,935 10.6 37.3°
